GW4285 Weather Reports


Display with metric or nautical units.
time (UTC)temp
F
wind
direction
speed
MPH
gust
MPH
rain 1hr
in
rain 24hr
in
rain mn
in
humidity
%
barometer
mb
20260831195334 63 256 4.0 5.0 0.00 0.00 0.00 77 1013.8
20260831194829 64 242 5.0 11.0 0.00 0.00 0.00 76 1014.1
20260831194324 65 255 3.0 4.0 0.00 0.00 0.00 74 1014.1
20260831193823 64 248 0.0 3.0 0.00 0.00 0.00 76 1014.0
20260831193319 62 237 2.0 4.0 0.00 0.00 0.00 80 1014.0
20260831192814 61 250 5.0 10.0 0.00 0.00 0.00 82 1014.1
20260831192309 60 258 1.0 4.0 0.00 0.00 0.00 84 1014.2
20260831191805 61 278 0.0 0.0 0.00 0.00 0.00 82 1014.0
20260831191301 61 264 0.0 0.0 0.00 0.00 0.00 82 1014.2
20260831190756 60 235 0.0 0.0 0.00 0.00 0.00 84 1014.2
20260831190256 60 247 0.0 1.0 0.00 0.00 0.00 84 1014.3
20260831185750 59 250 2.0 4.0 0.00 0.00 0.00 86 1014.2
20260831185246 58 249 2.0 4.0 0.00 0.00 0.00 88 1014.2
20260831184745 59 255 5.0 7.0 0.00 0.00 0.00 87 1014.1
20260831184241 58 248 0.0 5.0 0.00 0.00 0.00 88 1014.2
20260831183741 59 258 5.0 7.0 0.00 0.00 0.00 85 1014.2
20260831183235 59 266 1.0 5.0 0.00 0.00 0.00 86 1014.2
20260831182734 59 239 0.0 0.0 0.00 0.00 0.00 87 1014.2
20260831182230 58 250 3.0 3.0 0.00 0.00 0.00 87 1014.2
20260831181730 59 254 1.0 3.0 0.00 0.00 0.00 87 1014.1
20260831181225 58 232 0.0 0.0 0.00 0.00 0.00 89 1014.1
20260831180720 57 234 1.0 4.0 0.00 0.00 0.00 89 1014.2
20260831180215 58 263 4.0 7.0 0.00 0.00 0.00 89 1014.1
20260831175714 58 242 3.0 4.0 0.00 0.00 0.00 87 1014.2
20260831175211 58 240 0.0 1.0 0.00 0.00 0.00 89 1014.0
20260831174711 57 258 0.0 0.0 0.00 0.00 0.00 90 1014.0
20260831174207 57 252 0.0 4.0 0.00 0.00 0.00 90 1013.9
20260831173705 57 261 2.0 4.0 0.00 0.00 0.00 90 1014.0
20260831173201 57 273 0.0 3.0 0.00 0.00 0.00 90 1014.0
20260831172700 57 244 0.0 0.0 0.00 0.00 0.00 92 1014.0
20260831172156 56 260 0.0 1.0 0.00 0.00 0.00 92 1013.9
20260831171650 56 250 0.0 1.0 0.00 0.00 0.00 92 1013.9
20260831171148 56 251 0.0 1.0 0.00 0.00 0.00 92 1013.8
20260831170644 56 239 0.0 0.0 0.00 0.00 0.00 92 1013.8
20260831170141 56 74 4.0 4.0 0.00 0.00 0.00 92 1013.8
20260831165636 56 271 0.0 0.0 0.00 0.00 0.00 94 1013.8
20260831165133 55 235 0.0 1.0 0.00 0.00 0.00 94 1013.7
20260831164629 55 257 0.0 1.0 0.00 0.00 0.00 94 1013.7
20260831164124 55 244 0.0 0.0 0.00 0.00 0.00 95 1013.6
20260831163619 55 237 0.0 0.0 0.00 0.00 0.00 95 1013.6
20260831163115 55 252 0.0 0.0 0.00 0.00 0.00 96 1013.7
20260831162614 55 252 0.0 0.0 0.00 0.00 0.00 96 1013.6
20260831162111 54 252 0.0 0.0 0.00 0.00 0.00 96 1013.5
20260831161602 54 252 0.0 1.0 0.00 0.00 0.00 96 1013.5
20260831161058 54 179 0.0 1.0 0.00 0.00 0.00 96 1013.6
20260831160556 54 45 0.0 1.0 0.00 0.00 0.00 97 1013.5
20260831160053 54 253 0.0 0.0 0.00 0.00 0.00 97 1013.5
20260831155547 54 237 0.0 0.0 0.00 0.00 0.00 98 1013.4
20260831155043 54 260 0.0 0.0 0.00 0.00 0.00 98 1013.3
20260831154539 54 249 0.0 0.0 0.00 0.00 0.00 98 1013.2
20260831154038 53 299 0.0 0.0 0.00 0.00 0.00 98 1013.3
20260831153532 53 231 0.0 0.0 0.00 0.00 0.00 98 1013.3
20260831153029 53 217 0.0 0.0 0.00 0.00 0.00 98 1013.4
20260831152524 53 124 0.0 0.0 0.00 0.00 0.00 98 1013.3
20260831152019 53 122 0.0 0.0 0.00 0.00 0.00 99 1013.4
20260831151513 53 171 0.0 1.0 0.00 0.00 0.00 98 1013.2
20260831151008 53 244 0.0 4.0 0.00 0.00 0.00 98 1013.3
20260831150503 53 231 0.0 0.0 0.00 0.00 0.00 99 1013.3
20260831150003 53 285 1.0 3.0 0.00 0.00 0.00 98 1013.2
20260831145453 53 235 0.0 0.0 0.00 0.00 0.00 98 1013.0
20260831144949 53 235 0.0 0.0 0.00 0.00 0.00 98 1013.0
20260831144444 52 234 0.0 0.0 0.00 0.00 0.00 98 1013.0
20260831143939 52 246 0.0 0.0 0.00 0.00 0.00 98 1012.8
20260831143434 52 252 0.0 0.0 0.00 0.00 0.00 98 1012.9
20260831142930 52 252 0.0 0.0 0.00 0.00 0.00 98 1012.8
20260831142426 52 240 0.0 0.0 0.00 0.00 0.00 98 1012.7
20260831141920 53 241 0.0 1.0 0.00 0.00 0.00 98 1012.5
20260831141419 53 129 0.0 0.0 0.00 0.00 0.00 98 1012.5
20260831140914 53 126 0.0 0.0 0.00 0.00 0.00 98 1012.5
20260831140409 53 126 0.0 0.0 0.00 0.00 0.00 98 1012.6
20260831135908 53 126 0.0 0.0 0.00 0.00 0.00 98 1012.6
20260831135403 53 126 0.0 0.0 0.00 0.00 0.00 98 1012.5
20260831134858 52 287 0.0 0.0 0.00 0.00 0.00 98 1012.4
20260831134354 53 251 0.0 0.0 0.00 0.00 0.00 98 1012.3
20260831133853 53 220 0.0 0.0 0.00 0.00 0.00 98 1012.3
20260831133353 53 220 0.0 0.0 0.00 0.00 0.00 97 1012.3
20260831132849 52 287 0.0 0.0 0.00 0.00 0.00 97 1012.3
20260831132344 52 287 0.0 0.0 0.00 0.00 0.00 97 1012.4
20260831131844 52 287 0.0 0.0 0.00 0.00 0.00 97 1012.3
20260831131340 52 253 0.0 0.0 0.00 0.00 0.00 97 1012.4
20260831130835 52 253 0.0 0.0 0.00 0.00 0.00 97 1012.4
20260831130330 52 253 0.0 0.0 0.00 0.00 0.00 97 1012.3
20260831125829 52 253 0.0 0.0 0.00 0.00 0.00 97 1012.3
20260831125325 53 241 0.0 0.0 0.00 0.00 0.00 97 1012.2
20260831124824 53 241 0.0 0.0 0.00 0.00 0.00 97 1012.2
20260831124321 53 240 0.0 0.0 0.00 0.00 0.00 97 1012.2
20260831123821 53 257 0.0 0.0 0.00 0.00 0.00 97 1012.2
20260831123319 53 257 0.0 0.0 0.00 0.00 0.00 97 1012.2
20260831122815 53 257 0.0 0.0 0.00 0.00 0.00 98 1012.2
20260831122310 52 257 0.0 0.0 0.00 0.00 0.00 98 1012.2
20260831121810 52 257 0.0 0.0 0.00 0.00 0.00 98 1012.3
20260831121307 52 257 0.0 0.0 0.00 0.00 0.00 98 1012.3
20260831120802 52 257 0.0 0.0 0.00 0.00 0.00 98 1012.3
20260831120256 52 257 0.0 0.0 0.00 0.00 0.00 98 1012.3
20260831115751 53 321 0.0 0.0 0.00 0.00 0.00 98 1012.1
20260831115243 53 321 0.0 0.0 0.00 0.00 0.00 98 1012.2
20260831114741 53 321 0.0 0.0 0.00 0.00 0.00 98 1012.2
20260831114240 53 321 0.0 0.0 0.00 0.00 0.00 98 1012.1
20260831113736 53 321 0.0 0.0 0.00 0.00 0.00 98 1012.1
20260831113230 52 321 0.0 0.0 0.00 0.00 0.00 98 1011.9
20260831112729 52 321 0.0 0.0 0.00 0.00 0.00 98 1012.1
20260831112225 52 321 0.0 0.0 0.00 0.00 0.00 98 1012.1
20260831111720 52 321 0.0 0.0 0.00 0.00 0.00 98 1012.0
20260831111217 51 321 0.0 0.0 0.00 0.00 0.00 98 1012.1
20260831110712 51 321 0.0 0.0 0.00 0.00 0.00 98 1012.1
20260831110207 51 321 0.0 0.0 0.00 0.00 0.00 98 1012.1
20260831105706 51 321 0.0 0.0 0.00 0.00 0.00 97 1012.0
20260831105202 51 321 0.0 0.0 0.00 0.00 0.00 97 1012.0
20260831104657 51 321 0.0 0.0 0.00 0.00 0.00 97 1011.9
20260831104154 51 321 0.0 0.0 0.00 0.00 0.00 97 1012.0
20260831103653 51 321 0.0 0.0 0.00 0.00 0.00 97 1012.0
20260831103149 51 321 0.0 0.0 0.00 0.00 0.00 97 1012.1
20260831102648 51 321 0.0 0.0 0.00 0.00 0.00 97 1011.9
20260831102144 51 321 0.0 0.0 0.00 0.00 0.00 97 1012.0
20260831101639 51 321 0.0 0.0 0.00 0.00 0.00 97 1011.9
20260831101135 52 321 0.0 0.0 0.00 0.00 0.00 97 1011.7
20260831100630 52 321 0.0 0.0 0.00 0.00 0.00 97 1011.8
20260831100126 52 321 0.0 0.0 0.00 0.00 0.00 97 1011.7
20260831095624 52 320 0.0 0.0 0.00 0.00 0.00 97 1011.8
20260831095119 52 321 0.0 0.0 0.00 0.00 0.00 97 1011.8
20260831094615 52 321 0.0 0.0 0.00 0.00 0.00 97 1011.8
20260831094111 52 321 0.0 0.0 0.00 0.00 0.00 97 1011.7
20260831093606 52 321 0.0 0.0 0.00 0.00 0.00 97 1011.7
20260831093102 52 321 0.0 0.0 0.00 0.00 0.00 97 1011.6
20260831092558 52 315 0.0 0.0 0.00 0.00 0.00 97 1011.8
20260831092053 52 308 0.0 0.0 0.00 0.00 0.00 97 1011.7
20260831091553 52 305 0.0 0.0 0.00 0.00 0.00 97 1011.8
20260831091049 52 300 0.0 0.0 0.00 0.00 0.00 97 1011.8
20260831090544 52 300 0.0 0.0 0.00 0.00 0.00 96 1011.7
20260831090040 53 298 0.0 0.0 0.00 0.00 0.00 96 1011.7
20260831085535 53 272 0.0 0.0 0.00 0.00 0.00 97 1011.8
20260831085030 53 104 0.0 0.0 0.00 0.00 0.00 97 1011.9
20260831084526 53 40 0.0 0.0 0.00 0.00 0.00 96 1011.9
20260831084023 52 308 0.0 0.0 0.00 0.00 0.00 96 1012.1
20260831083518 52 309 0.0 0.0 0.00 0.00 0.00 96 1012.2
20260831083017 52 308 0.0 0.0 0.00 0.00 0.00 96 1012.0
20260831082512 52 309 0.0 0.0 0.00 0.00 0.00 96 1012.0
20260831082007 52 306 0.0 0.0 0.00 0.00 0.00 96 1012.1
20260831081502 52 307 0.0 0.0 0.00 0.00 0.00 96 1011.9
20260831080958 52 306 0.0 0.0 0.00 0.00 0.00 96 1011.9
20260831080452 52 314 0.0 0.0 0.00 0.00 0.00 96 1011.9
20260831075947 52 310 0.0 0.0 0.00 0.00 0.00 96 1011.9
20260831075443 52 311 0.0 0.0 0.00 0.00 0.00 96 1012.0
20260831074938 52 307 0.0 0.0 0.00 0.00 0.00 96 1012.1
20260831074432 52 303 0.0 0.0 0.00 0.00 0.00 96 1012.0
20260831073927 52 303 0.0 0.0 0.00 0.00 0.00 96 1012.0
20260831073426 52 303 0.0 0.0 0.00 0.00 0.00 96 1012.0
20260831072921 52 304 0.0 0.0 0.00 0.00 0.00 96 1012.1
20260831072417 52 303 0.0 0.0 0.00 0.00 0.00 96 1012.1
20260831071913 53 303 0.0 0.0 0.00 0.00 0.00 96 1012.3
20260831071412 53 303 0.0 0.0 0.00 0.00 0.00 96 1012.1
20260831070907 53 301 0.0 0.0 0.00 0.00 0.00 96 1012.2
20260831070406 53 301 0.0 0.0 0.00 0.00 0.00 96 1012.1
20260831065905 53 301 0.0 0.0 0.00 0.00 0.00 95 1012.1
20260831065403 53 299 0.0 0.0 0.00 0.00 0.00 96 1011.9
20260831064858 53 300 0.0 0.0 0.00 0.00 0.00 96 1012.0
20260831064353 53 297 0.0 0.0 0.00 0.00 0.00 96 1011.9
20260831063849 53 291 0.0 0.0 0.00 0.00 0.00 96 1012.1
20260831063344 53 291 0.0 0.0 0.00 0.00 0.00 96 1012.2
20260831062843 53 291 0.0 0.0 0.00 0.00 0.00 96 1012.0
20260831062339 53 291 0.0 0.0 0.00 0.00 0.00 95 1012.1
20260831061838 53 291 0.0 0.0 0.00 0.00 0.00 95 1012.1
20260831061337 53 291 0.0 0.0 0.00 0.00 0.00 95 1012.2
20260831060834 53 274 0.0 0.0 0.00 0.00 0.00 95 1012.3
20260831060333 53 296 0.0 0.0 0.00 0.00 0.00 95 1012.1
20260831055833 53 293 0.0 0.0 0.00 0.00 0.00 95 1012.1
20260831055328 53 293 0.0 0.0 0.00 0.00 0.00 95 1012.2
20260831054823 53 272 0.0 0.0 0.00 0.00 0.00 95 1012.1
20260831054318 53 273 0.0 0.0 0.00 0.00 0.00 95 1012.1
20260831053818 53 263 0.0 0.0 0.00 0.00 0.00 95 1012.3
20260831053316 53 241 0.0 0.0 0.00 0.00 0.00 95 1012.2
20260831052811 53 241 0.0 0.0 0.00 0.00 0.00 95 1012.2
20260831052310 54 242 0.0 0.0 0.00 0.00 0.00 94 1012.2
20260831051808 54 247 0.0 0.0 0.00 0.00 0.00 94 1012.2
20260831051307 54 249 0.0 0.0 0.00 0.00 0.00 94 1012.2
20260831050802 53 299 0.0 0.0 0.00 0.00 0.00 94 1012.2
20260831050301 54 254 0.0 0.0 0.00 0.00 0.00 93 1012.1
20260831045756 54 242 0.0 0.0 0.00 0.00 0.00 93 1012.4
20260831045250 54 242 0.0 0.0 0.00 0.00 0.00 93 1012.2
20260831044740 54 242 0.0 0.0 0.00 0.00 0.00 93 1012.2
20260831044234 54 242 0.0 0.0 0.00 0.00 0.00 93 1012.3
20260831043730 54 241 0.0 0.0 0.00 0.00 0.00 92 1012.3
20260831043225 55 249 0.0 0.0 0.00 0.00 0.00 92 1012.3
20260831042725 55 249 0.0 0.0 0.00 0.00 0.00 92 1012.1
20260831042219 55 252 0.0 0.0 0.00 0.00 0.00 91 1012.2
20260831041714 55 255 0.0 0.0 0.00 0.00 0.00 91 1012.1
20260831041209 55 255 0.0 0.0 0.00 0.00 0.00 91 1012.1
20260831040703 55 256 0.0 0.0 0.00 0.00 0.00 91 1012.0
20260831040202 55 232 0.0 0.0 0.00 0.00 0.00 90 1011.9
20260831035701 55 241 0.0 0.0 0.00 0.00 0.00 90 1011.9
20260831035155 56 247 0.0 0.0 0.00 0.00 0.00 89 1011.9
20260831034655 56 239 0.0 0.0 0.00 0.00 0.00 89 1012.0
20260831034150 56 256 0.0 0.0 0.00 0.00 0.00 89 1011.8
20260831033646 56 256 0.0 0.0 0.00 0.00 0.00 89 1011.9
20260831033141 56 256 0.0 0.0 0.00 0.00 0.00 88 1011.9
20260831032640 57 256 0.0 0.0 0.00 0.00 0.00 88 1011.8
20260831032136 57 264 0.0 0.0 0.00 0.00 0.00 87 1011.8
20260831031636 57 248 0.0 0.0 0.00 0.00 0.00 86 1011.8
20260831031135 57 242 0.0 0.0 0.00 0.00 0.00 85 1011.8
20260831030634 58 264 0.0 0.0 0.00 0.00 0.00 85 1011.8
20260831030133 58 233 0.0 0.0 0.00 0.00 0.00 84 1011.8
20260831025632 59 259 0.0 1.0 0.00 0.00 0.00 83 1011.8
20260831025127 59 253 0.0 3.0 0.00 0.00 0.00 81 1011.9
20260831024623 60 262 0.0 1.0 0.00 0.00 0.00 79 1011.7
20260831024122 61 257 0.0 1.0 0.00 0.00 0.00 77 1011.7
20260831023620 62 223 2.0 3.0 0.00 0.00 0.00 75 1011.8
20260831023120 63 250 0.0 4.0 0.00 0.00 0.00 74 1011.8
20260831022615 64 258 0.0 0.0 0.00 0.00 0.00 71 1011.9
20260831022110 65 240 1.0 3.0 0.00 0.00 0.00 70 1011.9
20260831021609 65 204 1.0 3.0 0.00 0.00 0.00 68 1011.9
20260831021105 66 184 2.0 4.0 0.00 0.00 0.00 67 1011.8
20260831020601 67 246 2.0 4.0 0.00 0.00 0.00 65 1011.9
20260831020055 68 242 1.0 4.0 0.00 0.00 0.00 63 1012.0
20260831015551 68 241 1.0 4.0 0.00 0.00 0.00 62 1012.0
20260831015050 69 271 3.0 5.0 0.00 0.00 0.00 62 1012.0
20260831014545 69 317 0.0 4.0 0.00 0.00 0.00 60 1012.0
20260831014041 71 245 1.0 5.0 0.00 0.00 0.00 58 1012.0
20260831013537 72 209 0.0 4.0 0.00 0.00 0.00 56 1011.9
20260831013031 73 255 1.0 3.0 0.00 0.00 0.00 54 1011.8
20260831012526 74 277 2.0 3.0 0.00 0.00 0.00 53 1011.9
20260831012021 73 235 3.0 5.0 0.00 0.00 0.00 54 1011.9
20260831011520 75 265 7.0 8.0 0.00 0.00 0.00 51 1011.9
20260831011016 74 254 4.0 4.0 0.00 0.00 0.00 50 1011.9
20260831010511 73 262 1.0 5.0 0.00 0.00 0.00 52 1012.0
20260831010007 74 251 3.0 7.0 0.00 0.00 0.00 51 1011.9
20260831005502 74 255 0.0 5.0 0.00 0.00 0.00 51 1012.0
20260831005001 74 250 1.0 7.0 0.00 0.00 0.00 51 1012.2
20260831004458 75 254 6.0 8.0 0.00 0.00 0.00 48 1012.1
20260831003959 75 270 5.0 7.0 0.00 0.00 0.00 48 1012.0
20260831003455 75 259 6.0 7.0 0.00 0.00 0.00 49 1012.0
20260831002954 77 235 6.0 8.0 0.00 0.00 0.00 48 1012.1
20260831002453 77 263 5.0 7.0 0.00 0.00 0.00 46 1012.1
20260831001949 75 250 3.0 8.0 0.00 0.00 0.00 50 1012.0
20260831001444 76 285 6.0 7.0 0.00 0.00 0.00 46 1012.1
20260831000941 76 261 7.0 11.0 0.00 0.00 0.00 49 1012.2
20260831000436 77 270 5.0 8.0 0.00 0.00 0.00 47 1012.1
20260830235934 76 250 3.0 8.0 0.00 0.00 0.00 48 1012.1
20260830235430 75 242 7.0 8.0 0.00 0.00 0.00 48 1012.2
20260830234925 78 224 2.0 5.0 0.00 0.00 0.00 46 1012.3
20260830234420 78 292 5.0 7.0 0.00 0.00 0.00 47 1012.4
20260830233916 75 243 4.0 8.0 0.00 0.00 0.00 49 1012.4
20260830233411 76 261 5.0 8.0 0.00 0.00 0.00 48 1012.2
20260830232907 77 255 5.0 8.0 0.00 0.00 0.00 48 1012.2
20260830232403 76 261 5.0 10.0 0.00 0.00 0.00 48 1012.2
20260830231859 75 263 5.0 11.0 0.00 0.00 0.00 50 1012.2
20260830231354 77 241 7.0 14.0 0.00 0.00 0.00 48 1012.3
20260830230853 78 258 2.0 4.0 0.00 0.00 0.00 46 1012.3
20260830230349 77 243 7.0 11.0 0.00 0.00 0.00 47 1012.3
20260830225848 78 238 3.0 7.0 0.00 0.00 0.00 48 1012.3
20260830225343 77 231 3.0 8.0 0.00 0.00 0.00 47 1012.3
20260830224838 77 256 6.0 12.0 0.00 0.00 0.00 48 1012.3
20260830224332 78 280 5.0 12.0 0.00 0.00 0.00 48 1012.4
20260830223829 78 276 3.0 11.0 0.00 0.00 0.00 48 1012.4
20260830223325 79 231 5.0 8.0 0.00 0.00 0.00 47 1012.4
20260830222824 79 254 5.0 5.0 0.00 0.00 0.00 46 1012.5
20260830222319 80 261 7.0 10.0 0.00 0.00 0.00 46 1012.4
20260830221815 79 251 3.0 8.0 0.00 0.00 0.00 48 1012.5
20260830221313 78 253 6.0 8.0 0.00 0.00 0.00 49 1012.6
20260830220812 78 321 5.0 11.0 0.00 0.00 0.00 48 1012.5
20260830220312 79 248 9.0 11.0 0.00 0.00 0.00 48 1012.6
20260830215809 78 252 6.0 8.0 0.00 0.00 0.00 48 1012.7
20260830215306 80 265 6.0 10.0 0.00 0.00 0.00 46 1012.7
20260830214800 82 249 7.0 8.0 0.00 0.00 0.00 44 1012.7
20260830214255 79 246 5.0 10.0 0.00 0.00 0.00 47 1012.8
20260830213754 80 252 5.0 8.0 0.00 0.00 0.00 46 1012.8
20260830213249 80 248 5.0 14.0 0.00 0.00 0.00 48 1013.0
20260830212745 81 255 7.0 10.0 0.00 0.00 0.00 45 1013.1
20260830212241 83 273 6.0 10.0 0.00 0.00 0.00 45 1013.2
20260830211740 82 236 1.0 5.0 0.00 0.00 0.00 43 1013.1
20260830211239 82 205 2.0 5.0 0.00 0.00 0.00 44 1013.1
20260830210736 83 149 1.0 3.0 0.00 0.00 0.00 43 1013.2
20260830210235 82 233 4.0 7.0 0.00 0.00 0.00 44 1013.3
20260830205732 80 255 3.0 10.0 0.00 0.00 0.00 47 1013.2
20260830205227 81 244 2.0 5.0 0.00 0.00 0.00 45 1013.3
20260830204722 81 269 2.0 7.0 0.00 0.00 0.00 46 1013.3
20260830204221 79 272 1.0 4.0 0.00 0.00 0.00 47 1013.3
20260830203717 79 272 3.0 5.0 0.00 0.00 0.00 47 1013.4
20260830203212 79 217 1.0 5.0 0.00 0.00 0.00 48 1013.4
20260830202711 78 241 3.0 7.0 0.00 0.00 0.00 49 1013.4
20260830202207 78 200 1.0 10.0 0.00 0.00 0.00 49 1013.4
20260830201701 77 222 1.0 5.0 0.00 0.00 0.00 51 1013.6
20260830201156 76 56 1.0 3.0 0.00 0.00 0.00 52 1013.6
20260830200652 77 251 5.0 7.0 0.00 0.00 0.00 50 1013.6
20260830200151 76 267 4.0 5.0 0.00 0.00 0.00 53 1013.7